Location: Boiro
(42.6475°N, 8.8834°W)
Time: 14:45:00
(UTC+01:00)

Vanguard 2 - Pass Details

Date: 30 November 2021
Orbit: 553 x 2936 km, 32.9° (Epoch: 23 January)

Event Time Altitude Azimuth Distance (km) Brightness Sun altitude
Rises 20:09:04 0° 267° (W) 4,264 12.8 -22.6°
Reaches altitude 10° 20:11:48 10° 259° (W) 3,577 12.1 -23.0°
Maximum altitude 20:20:25 37° 196° (SSW) 2,793 10.5 -24.6°
Drops below altitude 10° 20:33:21 10° 137° (SE) 5,331 11.5 -27.0°
Enters shadow 20:34:44 - 135° (SE) 5,668 11.6 -27.2°
